Wind_Speed
7 9 9 8 9 12 13 14 16 15 14 16 18 20 23 25 24 22 20 18 18 19 22 24 20 18 20 20 22 24 25 25 20 15 8 11 9 17 5 8 35 39 44
4 7 9 8 10 14 17 20 22 20 18 18 17 19 23 28 29 28 25 20 19 18 21 22 21 18 19 19 18 20 21 18 11 8 9 2 6 14 15 8 14 14 39
7 5 7 8 9 14 19 22 24 24 22 18 16 18 22 24 26 29 26 22 20 22 19 19 20 20 17 19 18 19 17 14 16 10 7 4 1 2 12 16 10 6 27
3 3 4 8 10 16 20 23 25 23 20 17 17 16 17 21 26 26 27 26 25 23 19 18 18 19 20 18 18 18 15 14 15 15 3 8 9 3 3 9 19 16 8
2 1 4 7 15 17 18 22 24 25 22 19 17 16 19 23 24 24 26 29 27 23 21 18 17 15 19 20 16 17 17 15 16 12 11 11 13 16 5 2 5 11 17
4 3 5 13 16 16 16 24 27 28 25 20 19 18 20 21 21 26 27 30 27 24 23 19 16 16 16 19 19 18 18 17 16 16 13 11 6 8 5 2 1 9 8
7 7 9 14 15 17 18 26 28 28 25 22 19 17 19 19 21 23 26 28 29 26 25 22 19 19 18 18 21 18 16 17 17 16 16 11 10 12 10 9 4 2 5
4 6 9 12 13 15 19 24 28 27 23 18 16 16 19 22 23 24 24 26 27 27 25 25 20 15 18 17 19 20 18 16 17 16 17 15 10 12 10 6 8 1 2
7 7 12 11 12 15 21 23 27 26 20 15 14 18 19 22 25 25 24 26 27 27 24 23 24 21 21 20 19 20 20 16 16 16 17 19 13 14 10 11 10 7 2
6 6 10 12 14 19 23 22 24 23 16 13 14 18 21 24 24 23 24 25 25 25 24 24 23 21 18 19 18 21 19 17 19 20 19 20 16 17 13 14 9 12 6
7 7 12 16 17 20 23 20 24 21 16 14 21 22 25 26 23 22 22 22 22 23 23 24 24 20 18 19 20 20 21 21 21 19 16 18 16 16 13 10 12 18 5
7 7 11 16 18 21 23 20 24 18 14 23 22 24 26 24 23 22 22 22 22 22 23 25 25 22 18 19 22 22 20 19 20 21 22 20 15 16 14 12 13 14 11
7 6 10 14 20 22 23 22 23 15 23 23 22 26 26 25 23 23 23 23 23 22 22 23 25 23 19 19 22 24 23 22 23 22 22 20 17 18 15 12 12 12 11
6 5 7 14 19 21 24 23 21 23 23 21 24 27 26 25 24 23 23 23 23 22 22 23 25 25 21 20 21 24 24 23 22 23 24 22 20 19 16 14 15 16 13
9 8 7 11 18 22 26 27 24 23 21 22 25 27 26 25 24 24 23 24 24 23 23 23 25 26 25 20 20 22 24 23 23 23 24 23 22 22 20 18 14 16 13
8 8 8 14 17 22 25 27 25 24 23 25 28 27 25 25 25 24 24 23 23 24 23 24 24 26 25 22 20 21 23 25 24 22 23 23 22 23 24 23 22 18 13
7 9 9 17 22 25 27 27 26 24 25 27 28 27 25 24 24 24 24 23 22 24 23 24 24 26 29 26 24 24 24 23 25 26 24 22 23 24 26 23 24 24 24
7 8 14 20 23 28 30 29 27 25 27 28 28 27 24 23 24 23 24 25 23 23 23 23 25 25 28 27 26 25 25 24 24 24 25 27 24 23 23 23 23 25 24
13 19 25 28 30 31 32 29 29 28 27 26 26 25 23 23 24 24 25 25 23 23 23 24 24 25 28 28 28 27 25 23 24 24 25 24 25 25 25 25 23 22 22
24 25 28 30 31 32 29 29 27 23 23 25 27 26 26 23 24 26 27 25 23 25 24 25 25 26 28 29 28 28 26 24 23 25 26 30 28 28 28 29 25 23 22
26 30 28 29 33 30 26 28 25 24 29 28 28 27 25 24 26 28 27 24 23 23 25 26 28 28 29 31 30 31 30 26 24 26 25 26 31 32 30 30 28 26 21
24 29 24 27 33 30 24 28 28 32 30 28 28 27 27 27 24 24 26 24 24 24 26 26 27 28 28 30 31 32 33 32 29 27 26 25 27 30 34 34 31 28 26
24 27 25 27 35 31 26 24 37 27 29 25 25 26 25 26 25 23 24 24 23 21 21 22 22 24 24 25 28 29 31 32 37 32 29 29 28 29 31 33 32 31 31
19 24 26 24 26 31 31 30 33 30 28 25 24 24 22 25 25 23 24 24 23 21 22 22 22 23 23 23 22 25 28 28 31 33 35 34 32 30 29 30 33 33 31
25 23 25 24 28 32 34 34 35 29 26 22 22 22 22 24 25 25 25 25 27 26 24 25 23 22 23 25 27 26 24 25 26 23 29 29 31 30 29 29 31 33 32
28 27 27 23 29 30 32 35 36 28 25 20 19 19 21 24 24 25 27 28 29 31 31 33 33 31 33 34 33 32 30 30 29 28 24 28 31 29 28 28 28 31 35
Wind_Direction
260 240 234 234 256 273 283 287 288 294 293 294 297 295 300 304 305 306 304 300 306 317 323 324 319 314 316 316 313 323 329 330 327 321 302 272 223 234 206 209 192 188 189
260 252 230 242 271 294 304 306 300 294 288 286 290 299 301 303 305 308 305 305 309 314 321 322 314 308 309 310 307 317 323 324 335 329 297 211 232 241 246 260 137 182 189
238 271 249 274 313 330 333 324 311 298 290 288 293 300 296 292 295 306 307 311 313 314 314 315 312 308 303 300 301 304 311 308 317 303 293 331 155 133 194 230 236 267 194
196 245 290 329 346 344 334 328 324 310 297 291 291 289 289 288 295 298 303 308 313 314 314 312 308 306 298 291 296 298 296 299 301 322 332 276 285 319 168 190 200 228 275
161 339 345 340 347 345 340 337 327 322 308 291 289 297 308 301 297 298 303 309 314 316 315 315 311 301 300 295 288 285 281 286 291 288 301 315 296 267 266 182 180 190 238
40 351 343 350 348 341 345 344 335 323 315 297 293 302 306 299 298 303 308 311 313 315 314 316 312 302 298 295 291 288 283 280 282 286 283 282 310 332 350 319 322 199 232
20 352 345 337 331 330 333 342 335 325 317 300 292 304 305 300 301 305 307 308 310 313 312 311 309 301 296 290 290 285 276 270 272 284 281 280 281 292 309 290 291 206 180
331 318 316 319 316 324 329 333 335 330 326 304 298 311 310 306 306 307 305 303 305 307 307 305 304 296 296 291 288 278 276 269 266 268 271 282 278 279 269 286 337 305 157
301 291 303 308 319 324 329 333 335 333 324 312 315 315 307 305 305 305 303 303 305 305 303 298 296 293 290 282 280 280 269 266 263 262 270 277 280 273 286 277 270 305 228
295 292 294 317 325 330 332 331 337 331 321 312 319 315 310 310 310 307 302 304 304 304 302 300 298 294 291 283 274 267 268 266 261 258 265 275 278 271 266 266 278 264 287
296 292 304 325 327 328 329 323 337 330 321 319 323 319 319 318 315 311 309 308 306 303 300 299 297 291 284 283 276 267 265 262 259 256 251 259 269 268 264 261 264 272 259
267 273 305 325 320 321 325 320 332 327 322 319 318 320 321 320 318 315 314 311 306 304 299 298 295 289 279 275 273 268 259 257 257 253 250 248 254 262 258 254 255 258 242
289 308 324 318 314 317 319 321 328 319 317 317 316 319 320 319 318 316 314 310 306 303 300 297 292 287 279 271 267 265 259 256 253 248 249 249 247 250 250 244 248 247 242
292 306 306 293 298 311 318 319 320 318 318 314 315 315 318 318 316 315 313 310 308 301 296 295 291 287 281 270 260 257 254 253 250 247 246 241 238 241 247 242 246 251 246
312 296 282 289 302 310 318 318 316 320 315 310 310 312 316 315 315 315 313 310 307 297 292 290 291 287 282 271 261 251 250 248 247 246 245 242 238 240 240 242 235 237 233
275 279 286 297 299 302 306 311 313 313 309 306 308 314 314 314 314 312 308 299 293 293 286 279 275 276 274 272 267 258 245 242 241 240 241 241 240 238 241 240 240 240 234
282 286 284 288 296 301 308 303 309 309 303 307 309 309 309 307 308 304 297 289 285 287 281 277 274 272 271 274 270 264 257 242 234 234 234 233 235 237 239 241 241 241 239
272 279 284 294 301 308 308 307 304 305 305 303 304 306 301 297 299 293 289 288 285 280 278 275 272 269 271 274 270 265 260 254 242 232 227 229 231 232 233 236 239 241 240
278 284 301 302 304 303 311 307 301 301 299 295 297 298 296 289 291 287 286 287 285 280 277 275 271 268 269 271 270 265 264 255 246 237 232 228 228 234 233 233 238 240 240
296 294 303 301 300 311 314 306 294 290 284 290 297 297 296 288 284 285 284 285 281 278 277 275 270 268 268 269 267 263 258 253 244 238 231 233 230 232 230 229 231 236 240
291 300 293 288 297 307 310 297 289 276 289 295 299 296 292 286 285 284 284 281 279 277 275 272 271 268 263 265 265 261 255 247 244 239 231 225 230 230 228 227 227 230 239
290 296 281 284 307 309 304 297 285 290 296 295 295 292 290 288 285 282 283 281 277 273 271 270 269 267 264 262 263 260 252 247 244 239 236 235 229 229 230 227 227 229 232
286 291 283 289 306 306 300 284 297 294 295 288 285 286 287 285 284 282 282 280 276 268 269 273 272 271 269 263 264 260 254 249 244 238 233 234 233 230 229 228 227 228 224
291 295 290 287 290 303 301 295 303 298 287 282 283 285 281 286 286 283 279 277 274 271 267 269 266 266 265 256 250 256 260 258 243 238 234 232 232 230 229 225 225 223 225
300 297 285 284 286 300 299 304 306 298 284 281 282 281 281 283 285 281 277 276 274 268 269 267 265 264 263 259 257 252 250 241 240 236 228 231 230 228 224 221 218 219 221
300 296 294 288 289 293 293 301 308 300 286 279 280 279 286 287 283 281 285 283 284 287 284 284 281 278 272 272 267 259 251 248 241 232 230 223 223 225 219 217 213 213 217
Height
822 821 823 823 824 824 823 822 821 819 818 817 816 815 813 811 809 809 808 807 806 804 801 798 795 794 791 789 787 785 780 774 772 764 756 750 753 758 755 758 762 767 773
821 820 821 822 822 821 821 820 818 817 816 814 812 811 809 807 804 805 804 803 802 800 798 797 794 791 788 787 787 784 783 776 772 768 765 750 753 752 751 755 754 761 770
822 822 822 821 821 821 820 817 815 814 812 810 808 807 806 804 801 799 798 799 798 797 795 793 792 790 786 784 784 784 783 779 776 775 773 755 748 751 752 752 753 761 767
820 821 821 820 819 818 817 816 813 810 809 807 805 803 801 800 799 798 795 794 794 792 791 789 787 786 785 782 780 780 781 780 777 773 770 766 765 756 750 751 755 759 759
818 820 820 820 818 816 815 813 810 806 805 804 802 800 798 797 796 794 792 789 788 787 785 784 783 781 781 780 778 777 778 776 776 774 772 767 763 757 754 749 750 755 758
820 821 820 818 816 815 813 811 807 803 801 800 798 797 796 794 792 790 787 785 781 781 780 780 779 777 776 775 773 773 770 770 772 772 771 770 765 760 758 749 747 745 750
818 818 817 817 816 814 812 809 806 801 798 797 796 794 792 791 789 786 783 780 777 775 775 774 774 772 771 770 769 768 768 768 768 766 768 766 765 767 762 760 748 746 742
819 818 816 815 815 812 810 808 804 798 794 793 793 791 789 788 785 783 779 776 773 771 770 769 768 768 767 765 764 763 764 765 763 764 767 764 764 765 763 760 757 747 748
822 819 816 814 812 809 806 804 800 795 792 791 790 789 787 784 781 777 775 771 769 766 765 763 762 762 762 761 760 757 757 758 760 760 761 762 759 763 758 759 759 758 748
819 817 814 811 808 805 802 800 797 793 790 788 786 784 784 780 776 772 769 766 764 761 759 758 757 756 756 755 756 756 755 755 757 757 756 757 755 760 758 757 756 759 754
814 812 810 807 804 801 799 796 792 789 786 784 782 779 776 773 771 768 764 761 759 756 754 752 751 750 749 749 750 751 751 752 753 752 751 755 754 754 754 755 754 759 755
811 808 806 803 801 799 795 792 789 785 783 781 778 774 771 768 765 762 759 756 754 751 749 747 746 745 744 744 744 744 745 745 745 746 750 749 750 750 751 750 753 757 756
805 801 798 797 796 795 793 789 785 782 780 777 773 770 766 763 759 757 754 751 749 746 743 742 740 739 739 738 738 738 739 739 740 742 743 741 742 746 749 748 752 756 753
800 799 797 795 793 791 788 784 780 778 774 771 768 765 761 757 754 751 748 745 743 741 739 736 734 733 733 732 731 731 732 734 734 736 737 737 737 740 741 745 748 750 749
799 797 795 791 787 785 782 779 775 772 769 766 763 759 756 752 748 745 742 740 737 735 733 731 728 727 726 726 725 725 726 726 728 729 730 731 733 736 738 742 744 748 745
799 796 792 787 783 780 777 773 770 767 764 761 757 754 750 747 743 740 736 734 732 729 727 725 723 720 719 718 719 719 718 718 720 721 722 723 727 730 733 735 737 742 741
795 791 787 783 778 775 773 767 764 762 759 755 751 748 745 741 737 735 731 728 726 723 720 718 717 714 711 710 711 712 712 712 711 713 716 720 723 725 726 727 729 734 737
790 787 783 778 773 770 766 762 758 755 751 748 744 741 738 735 732 729 725 722 720 717 714 711 709 708 704 702 703 704 704 704 705 707 709 712 715 717 719 723 724 725 728
782 780 776 772 767 763 759 755 750 748 745 741 738 736 733 729 726 722 718 715 713 710 708 704 702 701 697 696 695 696 696 695 694 696 698 702 704 709 715 717 718 719 720
776 773 770 766 762 756 753 748 744 741 737 735 731 728 726 723 719 715 711 707 705 703 701 697 694 692 690 687 688 689 689 688 689 690 691 694 698 704 709 710 712 711 713
772 770 767 762 756 751 748 742 737 731 729 727 723 720 717 715 712 709 703 701 697 696 693 690 686 684 681 679 679 679 679 679 680 682 684 688 693 696 698 700 703 706 710
765 761 758 752 747 744 742 735 728 722 721 719 715 711 709 707 704 701 696 694 690 687 684 681 677 674 671 671 669 668 668 669 670 671 674 677 682 685 688 691 695 700 705
759 754 750 744 739 736 733 730 719 717 713 710 707 705 702 699 696 693 688 685 682 678 674 672 668 665 663 661 659 658 658 659 660 661 665 669 672 677 680 683 687 691 695
751 746 742 738 731 728 724 721 715 710 706 702 699 697 695 691 687 685 680 677 673 669 665 662 658 655 653 651 650 650 649 648 649 652 654 658 662 666 669 673 677 680 683
743 740 735 730 724 720 715 713 707 703 698 696 692 689 687 683 678 675 671 667 662 659 654 650 647 644 639 639 640 640 639 640 641 644 645 648 650 653 657 662 666 670 673
738 734 728 724 717 713 707 703 699 696 692 688 686 683 680 676 672 666 659 656 652 647 643 639 636 632 629 627 627 628 629 630 632 633 633 634 637 639 644 649 653 657 661